User: anonymous   Login
Location: Unspecified
(0.0000°N, 0.0000°E)
Time: 06:46:08
(UTC+00:00)
Language:

Geos 2 (Explorer 36) - Orbit

View from above orbital plane
View from above orbital plane
View from above satellite
View from above satellite

Ground track
Ground track

The orbit data is extracted from the following two-line orbital elements,

1  3093U 68002A   18321.51707044 -.00000083  00000-0 -19454-4 0  9994
2  3093 105.8055 139.9926 0319608 279.2050  83.8226 12.83533812382527
Epoch (UTC): 17 November 2018 12:24:34
Eccentricity: 0.0319608
inclination: 105.8055°
perigee height: 1081 km
apogee height: 1573 km
right ascension of ascending node: 139.9926°
argument of perigee: 279.2050°
revolutions per day: 12.83533812
mean anomaly at epoch: 83.8226°
orbit number at epoch: 38252

The dashed part of the orbit path shows where the satellite is in the earth's shadow,  

DLR